W5SDC Weather Reports


Display with metric or nautical units.
time (UTC)temp
F
wind
direction
speed
MPH
gust
MPH
rain 1hr
in
rain 24hr
in
rain mn
in
humidity
%
barometer
mb
20260505011026 77 222 7.0 13.0 0.00 0.00 0.00 72 1009.7
20260505010553 77 186 7.0 10.0 0.00 0.00 0.00 72 1009.7
20260505010021 77 193 7.0 9.0 0.00 0.00 0.00 71 1009.7
20260505005527 78 201 8.0 11.0 0.00 0.00 0.00 71 1009.7
20260505005015 78 186 8.0 13.0 0.00 0.00 0.00 70 1009.7
20260505004522 78 179 9.0 11.0 0.00 0.00 0.00 70 1009.7
20260505004029 78 190 8.0 13.0 0.00 0.00 0.00 69 1009.6
20260505003517 79 207 10.0 13.0 0.00 0.00 0.00 68 1009.6
20260505003024 79 186 9.0 12.0 0.00 0.00 0.00 68 1009.6
20260505002530 79 183 11.0 16.0 0.00 0.00 0.00 68 1009.5
20260505002019 79 224 9.0 13.0 0.00 0.00 0.00 68 1009.5
20260505001525 79 171 9.0 16.0 0.00 0.00 0.00 68 1009.5
20260505001032 79 188 9.0 11.0 0.00 0.00 0.00 68 1009.5
20260505000520 80 196 10.0 13.0 0.00 0.00 0.00 67 1009.5
20260505000027 80 171 10.0 15.0 0.00 0.00 0.00 67 1009.6
20260504235515 80 220 8.0 13.0 0.00 0.00 0.00 67 1009.6
20260504235022 80 236 11.0 15.0 0.00 0.00 0.00 67 1009.7
20260504234528 81 199 10.0 15.0 0.00 0.00 0.00 66 1009.8
20260504234037 81 199 11.0 20.0 0.00 0.00 0.00 67 1009.8
20260504233523 80 174 12.0 18.0 0.00 0.00 0.00 67 1009.8
20260504233030 80 186 9.0 16.0 0.00 0.00 0.00 66 1009.8
20260504232518 81 186 11.0 17.0 0.00 0.00 0.00 66 1009.8
20260504232045 81 166 9.0 17.0 0.00 0.00 0.00 66 1009.8
20260504231531 81 183 11.0 13.0 0.00 0.00 0.00 66 1010.0
20260504231020 81 177 12.0 16.0 0.00 0.00 0.00 66 1010.1
20260504230527 81 184 12.0 17.0 0.00 0.00 0.00 65 1010.1
20260504230053 82 197 10.0 13.0 0.00 0.00 0.00 64 1010.2
20260504225546 82 201 13.0 19.0 0.00 0.00 0.00 64 1010.2
20260504225048 82 167 12.0 18.0 0.00 0.00 0.00 64 1010.4
20260504224536 82 195 9.0 14.0 0.00 0.00 0.00 64 1010.5
20260504224023 82 195 12.0 16.0 0.00 0.00 0.00 63 1010.4
20260504223529 82 187 8.0 13.0 0.00 0.00 0.00 63 1010.2
20260504223017 83 195 12.0 18.0 0.00 0.00 0.00 63 1010.2
20260504222524 83 173 9.0 14.0 0.00 0.00 0.00 62 1010.3
20260504222031 84 188 12.0 16.0 0.00 0.00 0.00 63 1010.4
20260504221519 83 169 9.0 11.0 0.00 0.00 0.00 64 1010.4
20260504221025 83 218 10.0 14.0 0.00 0.00 0.00 64 1010.5
20260504220532 84 184 9.0 16.0 0.00 0.00 0.00 63 1010.5
20260504220020 83 164 10.0 14.0 0.00 0.00 0.00 63 1010.5
20260504215547 83 170 12.0 14.0 0.00 0.00 0.00 63 1010.5
20260504215015 84 230 10.0 17.0 0.00 0.00 0.00 63 1010.6
20260504214522 83 175 10.0 15.0 0.00 0.00 0.00 63 1010.6
20260504214028 82 175 11.0 15.0 0.00 0.00 0.00 64 1010.7
20260504213517 83 170 9.0 13.0 0.00 0.00 0.00 63 1010.9
20260504213044 83 219 10.0 15.0 0.00 0.00 0.00 63 1010.9
20260504212550 83 198 10.0 15.0 0.00 0.00 0.00 62 1011.1
20260504212018 83 166 10.0 14.0 0.00 0.00 0.00 63 1011.1
20260504211525 83 193 11.0 16.0 0.00 0.00 0.00 63 1011.2
20260504211032 84 173 10.0 14.0 0.00 0.00 0.00 63 1011.4
20260504210520 83 185 9.0 14.0 0.00 0.00 0.00 63 1011.4
20260504210026 83 185 8.0 11.0 0.00 0.00 0.00 64 1011.5
20260504205515 82 194 11.0 15.0 0.00 0.00 0.00 64 1011.5
20260504205021 82 200 8.0 12.0 0.00 0.00 0.00 65 1011.6
20260504204528 81 187 10.0 13.0 0.00 0.00 0.00 65 1011.7
20260504204016 81 201 9.0 12.0 0.00 0.00 0.00 65 1011.8
20260504203523 81 192 10.0 13.0 0.00 0.00 0.00 65 1012.0
20260504203050 81 214 11.0 14.0 0.00 0.00 0.00 65 1012.0
20260504202518 81 216 9.0 17.0 0.00 0.00 0.00 66 1012.1
20260504202044 81 183 8.0 14.0 0.00 0.00 0.00 65 1012.2
20260504201531 83 202 9.0 13.0 0.00 0.00 0.00 64 1012.2
20260504201019 82 210 9.0 11.0 0.00 0.00 0.00 64 1012.4
20260504200526 82 166 9.0 12.0 0.00 0.00 0.00 64 1012.4
20260504200032 82 185 9.0 12.0 0.00 0.00 0.00 65 1012.7
20260504195521 81 177 9.0 15.0 0.00 0.00 0.00 65 1012.7
20260504195027 81 168 10.0 15.0 0.00 0.00 0.00 64 1012.7
20260504194516 80 202 8.0 12.0 0.00 0.00 0.00 66 1012.7
20260504194022 80 142 9.0 12.0 0.00 0.00 0.00 66 1012.8
20260504193529 81 188 9.0 12.0 0.00 0.00 0.00 65 1012.9
20260504193017 81 206 10.0 19.0 0.00 0.00 0.00 65 1012.9
20260504192524 81 192 9.0 15.0 0.00 0.00 0.00 65 1013.0
20260504192031 80 157 10.0 14.0 0.00 0.00 0.00 66 1013.1
20260504191519 80 192 10.0 17.0 0.00 0.00 0.00 67 1013.2
20260504191026 81 209 11.0 13.0 0.00 0.00 0.00 65 1013.4
20260504190532 81 200 10.0 15.0 0.00 0.00 0.00 66 1013.4
20260504190020 80 230 9.0 12.0 0.00 0.00 0.00 66 1013.4
20260504185527 79 244 9.0 12.0 0.00 0.00 0.00 68 1013.4
20260504185015 79 177 10.0 15.0 0.00 0.00 0.00 67 1013.5
20260504184522 79 233 10.0 14.0 0.00 0.00 0.00 68 1013.6
20260504184028 79 167 11.0 14.0 0.00 0.00 0.00 67 1013.7
20260504183517 79 190 12.0 18.0 0.00 0.00 0.00 67 1014.0
20260504183023 78 180 8.0 12.0 0.00 0.00 0.00 69 1014.0
20260504182530 79 192 9.0 12.0 0.00 0.00 0.00 68 1014.2
20260504182018 78 169 10.0 14.0 0.00 0.00 0.00 68 1014.2
20260504181524 79 191 9.0 16.0 0.00 0.00 0.00 67 1014.2
20260504181031 79 178 8.0 12.0 0.00 0.00 0.00 68 1014.2
20260504180519 78 220 8.0 11.0 0.00 0.00 0.00 69 1014.2
20260504180026 78 199 8.0 11.0 0.00 0.00 0.00 69 1014.3
20260504175533 79 186 9.0 12.0 0.00 0.00 0.00 69 1014.3
20260504175021 78 206 9.0 14.0 0.00 0.00 0.00 70 1014.4
20260504174528 77 226 9.0 13.0 0.00 0.00 0.00 72 1014.5
20260504174016 76 198 8.0 12.0 0.00 0.00 0.00 73 1014.6
20260504173523 76 196 8.0 14.0 0.00 0.00 0.00 72 1014.8
20260504173029 75 195 11.0 14.0 0.00 0.00 0.00 73 1014.8
20260504172518 75 192 10.0 13.0 0.00 0.00 0.00 73 1015.1
20260504172024 74 211 9.0 17.0 0.00 0.00 0.00 74 1015.1
20260504171531 74 187 10.0 15.0 0.00 0.00 0.00 74 1015.2
20260504171019 74 198 10.0 16.0 0.00 0.00 0.00 74 1015.3
20260504170546 74 199 9.0 12.0 0.00 0.00 0.00 74 1015.3
20260504151031 70 210 10.0 13.0 0.00 0.00 0.00 77 1015.8
20260504150519 71 203 11.0 16.0 0.00 0.00 0.00 77 1015.8
20260504141018 70 183 10.0 15.0 0.00 0.00 0.00 77 1015.8
20260504140525 69 175 7.0 16.0 0.00 0.00 0.00 78 1015.8
20260504130551 65 149 7.0 9.0 0.00 0.00 0.00 83 1015.8
20260504110525 60 224 5.0 8.0 0.00 0.00 0.00 88 1015.5
20260504100531 61 174 6.0 9.0 0.00 0.00 0.00 86 1015.6
20260504081529 62 155 5.0 6.0 0.00 0.00 0.00 82 1016.0
20260504081018 62 185 5.0 8.0 0.00 0.00 0.00 82 1016.2
20260504080525 62 184 5.0 8.0 0.00 0.00 0.00 82 1016.2
20260504050524 66 173 8.0 10.0 0.00 0.00 0.00 68 1018.2
20260504045519 66 171 7.0 9.0 0.00 0.00 0.00 66 1018.1
20260504045026 66 177 5.0 7.0 0.00 0.00 0.00 64 1018.3
20260504044532 66 187 6.0 9.0 0.00 0.00 0.00 63 1018.4
20260504044021 66 161 6.0 9.0 0.00 0.00 0.00 62 1018.4
20260504043527 67 174 6.0 8.0 0.00 0.00 0.00 62 1018.4
20260504043015 67 165 6.0 10.0 0.00 0.00 0.00 62 1018.4
20260504042522 67 180 6.0 11.0 0.00 0.00 0.00 61 1018.4
20260504042029 67 159 7.0 11.0 0.00 0.00 0.00 60 1018.4
20260504041517 67 156 6.0 11.0 0.00 0.00 0.00 59 1018.4
20260504041144 68 146 6.0 11.0 0.00 0.00 0.00 57 1018.4
20260504040530 68 161 7.0 9.0 0.00 0.00 0.00 57 1018.4
20260504040019 67 146 7.0 10.0 0.00 0.00 0.00 57 1018.4
20260504035525 67 157 5.0 9.0 0.00 0.00 0.00 57 1018.4
20260504035032 67 168 4.0 6.0 0.00 0.00 0.00 57 1018.4
20260504034520 67 154 4.0 5.0 0.00 0.00 0.00 57 1018.4
20260504034027 67 145 4.0 5.0 0.00 0.00 0.00 57 1018.4
20260504033515 67 157 3.0 5.0 0.00 0.00 0.00 56 1018.4
20260504033022 67 156 3.0 5.0 0.00 0.00 0.00 56 1018.4
20260504032528 67 156 3.0 5.0 0.00 0.00 0.00 56 1018.2
20260504032016 67 165 4.0 5.0 0.00 0.00 0.00 56 1018.2
20260504031523 68 187 4.0 6.0 0.00 0.00 0.00 56 1018.3
20260504031029 68 162 3.0 5.0 0.00 0.00 0.00 56 1018.4
20260504030518 68 161 3.0 4.0 0.00 0.00 0.00 56 1018.4
20260504030024 68 174 3.0 5.0 0.00 0.00 0.00 56 1018.4
20260504025531 68 193 3.0 5.0 0.00 0.00 0.00 56 1018.4
20260504025019 68 168 4.0 6.0 0.00 0.00 0.00 56 1018.4
20260504024526 68 172 3.0 5.0 0.00 0.00 0.00 56 1018.4
20260504024033 68 184 3.0 5.0 0.00 0.00 0.00 56 1018.3
20260504023521 68 173 3.0 5.0 0.00 0.00 0.00 56 1018.1
20260504023028 68 180 3.0 4.0 0.00 0.00 0.00 55 1018.1
20260504022516 68 153 3.0 5.0 0.00 0.00 0.00 55 1018.3
20260504022023 69 157 3.0 5.0 0.00 0.00 0.00 55 1018.4
20260504021549 69 150 3.0 4.0 0.00 0.00 0.00 55 1018.3
20260504021018 69 163 3.0 5.0 0.00 0.00 0.00 54 1018.2
20260504020545 69 165 4.0 5.0 0.00 0.00 0.00 54 1018.2
20260504020051 69 183 3.0 5.0 0.00 0.00 0.00 54 1017.9
20260504015539 69 175 2.0 4.0 0.00 0.00 0.00 53 1017.9
20260504015046 70 186 3.0 5.0 0.00 0.00 0.00 53 1017.8
20260504014532 70 179 3.0 4.0 0.00 0.00 0.00 52 1017.7
20260504014021 70 171 3.0 4.0 0.00 0.00 0.00 52 1017.7
20260504013527 70 164 3.0 5.0 0.00 0.00 0.00 51 1017.7
20260504013015 71 158 3.0 5.0 0.00 0.00 0.00 51 1017.7
20260504012522 71 182 3.0 6.0 0.00 0.00 0.00 50 1017.7
20260504012029 71 161 4.0 6.0 0.00 0.00 0.00 49 1017.7
20260504011517 72 159 4.0 6.0 0.00 0.00 0.00 49 1017.7